TimeEST,TemperatureF,Dew PointF,Humidity,Sea Level PressureIn,VisibilityMPH,Wind Direction,Wind SpeedMPH,Gust SpeedMPH,PrecipitationIn,Events,Conditions,WindDirDegrees,DateUTC
12:15 AM,44.6,37.4,76,30.31,10.0,SE,5.8,-,N/A,,Mostly Cloudy,130,2013-02-11 05:15:00
12:35 AM,44.6,37.4,76,30.29,10.0,ESE,5.8,-,N/A,,Overcast,120,2013-02-11 05:35:00
12:55 AM,46.4,37.4,71,30.27,10.0,ESE,8.1,-,N/A,,Overcast,120,2013-02-11 05:55:00
1:15 AM,46.4,39.2,76,30.25,10.0,ESE,10.4,-,N/A,,Overcast,120,2013-02-11 06:15:00
1:35 AM,48.2,39.2,71,30.23,10.0,ESE,10.4,-,N/A,,Overcast,120,2013-02-11 06:35:00
1:55 AM,48.2,42.8,82,30.23,10.0,SE,11.5,17.3,N/A,,Overcast,140,2013-02-11 06:55:00
2:15 AM,50.0,42.8,76,30.23,10.0,SE,8.1,-,N/A,,Overcast,140,2013-02-11 07:15:00
2:35 AM,48.2,42.8,82,30.21,10.0,SSE,5.8,-,N/A,,Overcast,150,2013-02-11 07:35:00
3:15 AM,51.8,44.6,76,30.19,10.0,SSE,8.1,-,N/A,,Overcast,150,2013-02-11 08:15:00
3:35 AM,51.8,44.6,76,30.19,10.0,SSE,9.2,-,N/A,,Overcast,150,2013-02-11 08:35:00
3:55 AM,51.8,44.6,76,30.18,10.0,SE,8.1,-,N/A,,Overcast,140,2013-02-11 08:55:00
4:15 AM,51.8,44.6,76,30.18,10.0,SSE,5.8,-,N/A,,Overcast,150,2013-02-11 09:15:00
4:35 AM,51.8,46.4,82,30.19,10.0,SSE,3.5,-,N/A,,Overcast,150,2013-02-11 09:35:00
4:55 AM,53.6,46.4,77,30.18,10.0,SE,4.6,-,N/A,,Overcast,140,2013-02-11 09:55:00
5:15 AM,51.8,46.4,82,30.17,10.0,SE,5.8,-,N/A,Rain,Light Rain,140,2013-02-11 10:15:00
5:35 AM,51.8,48.2,88,30.16,10.0,SSE,4.6,-,N/A,,Light Drizzle,150,2013-02-11 10:35:00
5:55 AM,51.8,48.2,88,30.15,10.0,SSE,5.8,-,N/A,,Overcast,150,2013-02-11 10:55:00
6:15 AM,53.6,48.2,82,30.15,10.0,SSE,6.9,-,N/A,Rain,Rain,160,2013-02-11 11:15:00
6:35 AM,53.6,48.2,82,30.15,10.0,South,5.8,-,N/A,,Drizzle,170,2013-02-11 11:35:00
6:55 AM,53.6,50.0,88,30.14,7.0,SSE,6.9,-,N/A,,Drizzle,160,2013-02-11 11:55:00
7:15 AM,53.6,51.8,94,30.14,7.0,South,5.8,-,0.01,,Drizzle,170,2013-02-11 12:15:00
7:35 AM,53.6,51.8,94,30.14,5.0,SSE,5.8,-,0.01,,Drizzle,150,2013-02-11 12:35:00
7:55 AM,53.6,51.8,94,30.14,7.0,SSE,6.9,-,N/A,Rain,Rain,160,2013-02-11 12:55:00
8:15 AM,53.6,51.8,94,30.14,7.0,South,8.1,-,0.01,Rain,Light Rain,180,2013-02-11 13:15:00
8:35 AM,53.6,53.6,100,30.13,7.0,South,8.1,-,0.02,Rain,Rain,180,2013-02-11 13:35:00
8:55 AM,53.6,53.6,100,30.12,7.0,South,9.2,-,N/A,,Drizzle,170,2013-02-11 13:55:00
9:15 AM,55.4,53.6,94,30.11,7.0,South,10.4,-,0.01,,Drizzle,180,2013-02-11 14:15:00
9:35 AM,55.4,55.4,100,30.09,7.0,South,10.4,18.4,0.01,,Light Drizzle,170,2013-02-11 14:35:00
9:55 AM,55.4,55.4,100,30.08,7.0,South,9.2,-,N/A,,Overcast,180,2013-02-11 14:55:00
10:15 AM,57.2,55.4,94,30.08,3.0,South,10.4,-,N/A,,Overcast,180,2013-02-11 15:15:00
10:35 AM,57.2,55.4,94,30.07,2.0,South,12.7,-,N/A,,Drizzle,190,2013-02-11 15:35:00
10:55 AM,57.2,57.2,100,30.06,3.0,South,12.7,-,0.01,,Drizzle,190,2013-02-11 15:55:00
11:15 AM,57.2,57.2,100,30.05,2.0,SSW,12.7,17.3,0.02,Rain,Rain,200,2013-02-11 16:15:00
11:35 AM,57.2,57.2,100,30.03,2.0,South,12.7,17.3,0.02,,Light Drizzle,190,2013-02-11 16:35:00
11:55 AM,59.0,57.2,94,30.01,3.0,SSW,11.5,-,N/A,,Overcast,200,2013-02-11 16:55:00
12:15 PM,59.0,59.0,100,30.01,3.0,SSW,15.0,24.2,N/A,,Overcast,200,2013-02-11 17:15:00
12:35 PM,60.8,59.0,94,29.99,7.0,SSW,10.4,-,N/A,,Overcast,200,2013-02-11 17:35:00
12:55 PM,60.8,59.0,94,29.97,7.0,SSW,10.4,17.3,N/A,,Overcast,210,2013-02-11 17:55:00
1:15 PM,60.8,60.8,100,29.96,7.0,SSW,10.4,19.6,N/A,,Overcast,210,2013-02-11 18:15:00
1:35 PM,60.8,60.8,100,29.95,7.0,SSW,12.7,20.7,N/A,,Overcast,210,2013-02-11 18:35:00
1:55 PM,60.8,60.8,100,29.95,5.0,SSW,15.0,26.5,N/A,,Overcast,210,2013-02-11 18:55:00
2:15 PM,62.6,60.8,94,29.95,10.0,SW,10.4,20.7,N/A,,Overcast,220,2013-02-11 19:15:00
2:35 PM,62.6,60.8,94,29.94,7.0,SW,15.0,21.9,N/A,,Overcast,220,2013-02-11 19:35:00
2:55 PM,62.6,60.8,94,29.92,7.0,SSW,11.5,-,N/A,,Overcast,210,2013-02-11 19:55:00
3:15 PM,62.6,60.8,94,29.91,10.0,SSW,11.5,-,N/A,,Overcast,210,2013-02-11 20:15:00
3:35 PM,62.6,60.8,94,29.91,10.0,SSW,15.0,18.4,N/A,,Overcast,200,2013-02-11 20:35:00
3:55 PM,62.6,60.8,94,29.91,10.0,SSW,12.7,21.9,N/A,,Overcast,210,2013-02-11 20:55:00
4:15 PM,62.6,60.8,94,29.92,10.0,SW,13.8,21.9,N/A,,Overcast,230,2013-02-11 21:15:00
4:35 PM,62.6,60.8,94,29.90,10.0,SW,12.7,21.9,N/A,,Overcast,220,2013-02-11 21:35:00
4:55 PM,62.6,60.8,94,29.90,10.0,SW,12.7,18.4,N/A,,Overcast,220,2013-02-11 21:55:00
5:55 PM,62.6,60.8,94,29.88,10.0,SW,12.7,18.4,N/A,,Overcast,220,2013-02-11 22:55:00
6:15 PM,62.6,60.8,94,29.88,10.0,SW,12.7,18.4,N/A,,Mostly Cloudy,220,2013-02-11 23:15:00
6:35 PM,62.6,60.8,94,29.89,10.0,SW,13.8,18.4,N/A,,Mostly Cloudy,220,2013-02-11 23:35:00
6:55 PM,62.6,60.8,94,29.88,10.0,SSW,12.7,20.7,N/A,,Scattered Clouds,210,2013-02-11 23:55:00
7:15 PM,64.4,60.8,88,29.88,10.0,SW,13.8,19.6,N/A,,Clear,220,2013-02-12 00:15:00
7:35 PM,62.6,60.8,94,29.88,10.0,SW,12.7,19.6,N/A,,Scattered Clouds,220,2013-02-12 00:35:00
7:55 PM,64.4,60.8,88,29.88,10.0,SW,13.8,-,N/A,,Overcast,230,2013-02-12 00:55:00
8:15 PM,64.4,59.0,83,29.87,10.0,SW,12.7,21.9,N/A,,Overcast,230,2013-02-12 01:15:00
8:35 PM,62.6,59.0,88,29.88,10.0,WSW,11.5,18.4,N/A,,Mostly Cloudy,240,2013-02-12 01:35:00
8:55 PM,64.4,59.0,83,29.88,10.0,SW,13.8,18.4,N/A,,Mostly Cloudy,230,2013-02-12 01:55:00
9:15 PM,62.6,59.0,88,29.86,10.0,SW,12.7,19.6,N/A,,Mostly Cloudy,220,2013-02-12 02:15:00
9:35 PM,62.6,59.0,88,29.86,10.0,SW,12.7,17.3,N/A,,Scattered Clouds,220,2013-02-12 02:35:00
9:55 PM,62.6,59.0,88,29.86,10.0,SW,15.0,21.9,N/A,,Clear,230,2013-02-12 02:55:00
10:15 PM,62.6,57.2,82,29.86,10.0,SW,10.4,20.7,N/A,,Clear,230,2013-02-12 03:15:00
10:35 PM,62.6,57.2,82,29.86,10.0,SW,13.8,18.4,N/A,,Clear,230,2013-02-12 03:35:00
10:55 PM,62.6,57.2,82,29.85,10.0,SW,11.5,17.3,N/A,,Clear,230,2013-02-12 03:55:00
11:15 PM,60.8,57.2,88,29.85,10.0,WSW,12.7,-,N/A,,Clear,240,2013-02-12 04:15:00
11:35 PM,62.6,57.2,82,29.85,10.0,SW,12.7,20.7,N/A,,Clear,230,2013-02-12 04:35:00
11:55 PM,60.8,55.4,82,29.85,10.0,SW,13.8,-,N/A,,Clear,230,2013-02-12 04:55:00